Flag for Germany Weather past 2 weeks in Zittau, Saxony, Germany

Now
38 °F

Drizzle. Overcast.


Feels Like: 38 °F
Forecast: 31 / 46 °F
Wind: 2 mph from Southwest

Location: Liberec

Current Time: Mar 6, 2015 at 2:19:26 PM

Latest Report: Mar 6, 2015 at 1:00 PM


Visibility: 5 mi

Pressure: 30.59 "Hg

Humidity: 85%

Dew point: 34 °F

Location of ZittauLocation

Historic Weather in Zittau — Graph

°F

Zittau temperature yesterday

Maximum temperature yesterday: 42 °F (at 2:00 PM)
Minimum temperature yesterday: 31 °F (at 8:00 PM)
Average temperature yesterday: 35 °F

Past Weeks' High & Low Weather Summary

 TemperatureHumidityPressure
High47 °F (Feb 26, 1:00 PM)100% (Feb 26, 2:00 AM)30.60 "Hg (Feb 26, 2:00 AM)
Low26 °F (Feb 20, 7:00 AM)37% (Mar 3, 2:00 PM)29.50 "Hg (Feb 23, 2:00 PM)
Average36 °F81%30.00 "Hg
* Reported Feb 19 1:00 PM — Mar 6 1:00 PM, Zittau, Weather by CustomWeather, © 2015

Note: Actual official high and low records may vary slightly from our data, if they occured in-between our weather recording intervals... More about our weather records

Advertising

Zittau weather history for previous 24 hours

 ConditionsComfort  
Time TempWeatherWind HumidityBarometerVisibility
1:00 PM
Fri, Mar 6
38 °FDrizzle. Overcast.2 mph85%30.59 "Hg5 mi
12:00 PM39 °FOvercast.2 mph74%30.60 "Hg9 mi
11:00 AM41 °FOvercast.1 mph70%30.60 "Hg11 mi
10:00 AM38 °FOvercast.1 mph82%30.60 "Hg7 mi
9:00 AM34 °FFog.1 mph93%30.60 "Hg5 mi
8:00 AM33 °FFog.No wind97%30.60 "Hg4 mi
7:00 AM33 °FFog.1 mph98%30.59 "Hg2 mi
6:00 AM33 °FFog.2 mph99%30.58 "Hg2 mi
5:00 AM33 °FChilly.1 mph98%30.58 "Hg2 mi
4:00 AM33 °FFog.2 mph98%30.58 "Hg3 mi
3:00 AM33 °FChilly.2 mph98%30.57 "Hg2 mi
2:00 AM33 °FFog.2 mph98%30.58 "Hg2 mi
1:00 AM33 °FFog.1 mph99%30.57 "Hg2 mi
12:00 AM33 °FSnow flurries. Overcast.1 mph98%30.56 "Hg1 mi
11:00 PM
Thu, Mar 5
33 °FSnow flurries. Overcast.2 mph98%30.56 "Hg2 mi
10:00 PM32 °FSnow flurries. Overcast.1 mph95%30.56 "Hg2 mi
9:00 PM31 °FPassing clouds.1 mph92%30.56 "Hg16 mi
8:00 PM31 °FPassing clouds.1 mph90%30.54 "Hg16 mi
7:00 PM33 °FPassing clouds.3 mph86%30.53 "Hg16 mi
6:00 PM37 °FRain showers. Overcast.3 mph71%30.51 "Hg12 mi
5:00 PM38 °FChilly.2 mph63%30.48 "Hg12 mi
4:00 PM38 °FScattered clouds.3 mph59%30.47 "Hg25 mi
3:00 PM39 °FScattered clouds.5 mph61%30.46 "Hg22 mi
2:00 PM42 °FPartly sunny.5 mph60%30.45 "Hg19 mi
Weather by CustomWeather, © 2015

See weather overviewHow to use our weather pages